Location: *
(52.2090°N, 4.1550°W)
Time: 15:52:09
(UTC+00:00)

NOSS 8 (A) - Pass Details

Date: 19 July 2019
Orbit: 391 x 1762 km, 63.3° (Epoch: 18 August)

Event Time Altitude Azimuth Distance (km) Brightness Sun altitude
Exits shadow 22:35:34 13° 208° (SSW) 1,284 6.4 -13.4°
Maximum altitude 22:38:11 54° 131° (SE) 483 4.2 -13.5°
Drops below altitude 10° 22:41:14 10° 53° (NE) 1,474 7.2 -13.7°
Sets 22:43:24 0° 48° (NE) 2,412 8.3 -13.9°
